• In Hungary
  • List of Countries
  • For 7 days
  • Water Temperature
  • Satellite Maps
  • Weather Map
  • News
  • Weather Widgets
  • user-avatar
    Login

    Hourly Weather Anagni

    Today, 25 September, Tuesday

    Time Temperature Precipitation Wind Pressure Humidity
    00:00 +18°C° 0 mm 4 mps 736 mmHg 68%
    01:00 +17°C° 0 mm 4 mps 736 mmHg 67%
    02:00 +17°C° 0.1 mm 4 mps 736 mmHg 64%
    03:00 +16°C° 0.1 mm 3 mps 736 mmHg 60%
    04:00 +16°C° 0.1 mm 3 mps 736 mmHg 57%
    05:00 +16°C° 0.3 mm 3 mps 737 mmHg 57%
    06:00 +16°C° 0.3 mm 3 mps 737 mmHg 58%
    07:00 +14°C° 0.3 mm 3 mps 737 mmHg 58%
    08:00 +17°C° 0 mm 3 mps 738 mmHg 54%
    09:00 +18°C° 0 mm 3 mps 738 mmHg 49%
    10:00 +19°C° 0 mm 3 mps 738 mmHg 45%
    11:00 +21°C° 0 mm 3 mps 739 mmHg 41%
    12:00 +22°C° 0 mm 3 mps 739 mmHg 38%
    13:00 +24°C° 0 mm 3 mps 739 mmHg 34%
    14:00 +24°C° 0 mm 3 mps 739 mmHg 35%
    15:00 +22°C° 0 mm 3 mps 739 mmHg 37%
    16:00 +22°C° 0 mm 3 mps 739 mmHg 38%
    17:00 +20°C° 0 mm 3 mps 739 mmHg 44%
    18:00 +18°C° 0 mm 3 mps 739 mmHg 51%
    19:00 +16°C° 0 mm 3 mps 739 mmHg 57%
    20:00 +14°C° 0 mm 3 mps 740 mmHg 58%
    21:00 +13°C° 0 mm 3 mps 740 mmHg 58%
    22:00 +13°C° 0 mm 3 mps 741 mmHg 59%
    23:00 +12°C° 0 mm 3 mps 741 mmHg 59%

    Tomorrow, 26 September, Wednesday

    Time Temperature Precipitation Wind Pressure Humidity
    00:00 +12°C° 0 mm 3 mps 741 mmHg 59%
    01:00 +11°C° 0 mm 3 mps 741 mmHg 58%
    02:00 +11°C° 0 mm 3 mps 741 mmHg 59%
    03:00 +10°C° 0 mm 3 mps 741 mmHg 60%
    04:00 +10°C° 0 mm 3 mps 741 mmHg 60%
    05:00 +10°C° 0 mm 3 mps 741 mmHg 60%
    06:00 +10°C° 0 mm 3 mps 741 mmHg 59%
    07:00 +11°C° 0 mm 3 mps 741 mmHg 58%
    08:00 +13°C° 0 mm 3 mps 742 mmHg 49%
    09:00 +16°C° 0 mm 3 mps 742 mmHg 41%
    10:00 +19°C° 0 mm 3 mps 742 mmHg 32%
    11:00 +20°C° 0 mm 3 mps 743 mmHg 30%
    12:00 +21°C° 0 mm 2 mps 743 mmHg 28%
    13:00 +23°C° 0 mm 2 mps 743 mmHg 26%
    14:00 +23°C° 0 mm 2 mps 743 mmHg 28%
    15:00 +23°C° 0 mm 2 mps 742 mmHg 30%
    16:00 +21°C° 0 mm 2 mps 742 mmHg 32%
    17:00 +19°C° 0 mm 2 mps 742 mmHg 39%
    18:00 +17°C° 0 mm 2 mps 742 mmHg 47%
    19:00 +15°C° 0 mm 2 mps 742 mmHg 54%
    20:00 +14°C° 0 mm 2 mps 742 mmHg 55%
    21:00 +14°C° 0 mm 1 mps 743 mmHg 57%
    22:00 +13°C° 0 mm 1 mps 743 mmHg 58%
    23:00 +13°C° 0 mm 2 mps 743 mmHg 56%

    Day after tomorrow, 27 September, Thursday

    Time Temperature Precipitation Wind Pressure Humidity
    00:00 +12°C° 0 mm 2 mps 743 mmHg 55%
    01:00 +12°C° 0 mm 2 mps 742 mmHg 53%
    02:00 +12°C° 0 mm 2 mps 742 mmHg 50%
    03:00 +12°C° 0 mm 2 mps 742 mmHg 48%
    04:00 +12°C° 0 mm 2 mps 742 mmHg 46%
    05:00 +12°C° 0 mm 2 mps 742 mmHg 44%
    06:00 +13°C° 0 mm 2 mps 741 mmHg 42%
    07:00 +13°C° 0 mm 2 mps 741 mmHg 40%
    08:00 +16°C° 0 mm 1 mps 741 mmHg 36%
    09:00 +20°C° 0 mm 1 mps 741 mmHg 31%
    10:00 +23°C° 0 mm 1 mps 741 mmHg 27%
    11:00 +24°C° 0 mm 1 mps 741 mmHg 26%
    12:00 +25°C° 0 mm 2 mps 741 mmHg 24%
    13:00 +26°C° 0 mm 2 mps 741 mmHg 23%
    14:00 +25°C° 0 mm 2 mps 740 mmHg 25%
    15:00 +25°C° 0 mm 3 mps 739 mmHg 26%
    16:00 +25°C° 0 mm 3 mps 739 mmHg 28%
    17:00 +23°C° 0 mm 2 mps 738 mmHg 35%
    18:00 +19°C° 0 mm 2 mps 738 mmHg 42%
    19:00 +17°C° 0 mm 2 mps 737 mmHg 49%
    20:00 +18°C° 0 mm 1 mps 737 mmHg 50%
    21:00 +16°C° 0 mm 1 mps 737 mmHg 52%
    22:00 +15°C° 0 mm 1 mps 737 mmHg 53%
    23:00 +15°C° 0 mm 1 mps 737 mmHg 52%

    28 September, Friday

    Time Temperature Precipitation Wind Pressure Humidity
    00:00 +15°C° 0 mm 1 mps 736 mmHg 51%
    01:00 +15°C° 0 mm 1 mps 736 mmHg 50%
    02:00 +15°C° 0 mm 1 mps 735 mmHg 49%
    03:00 +15°C° 0 mm 1 mps 735 mmHg 48%
    04:00 +14°C° 0 mm 2 mps 735 mmHg 47%
    05:00 +15°C° 0 mm 1 mps 734 mmHg 46%
    06:00 +15°C° 0 mm 1 mps 734 mmHg 45%
    07:00 +16°C° 0 mm 1 mps 734 mmHg 43%
    08:00 +19°C° 0 mm 1 mps 734 mmHg 40%
    09:00 +22°C° 0 mm 1 mps 734 mmHg 37%
    10:00 +24°C° 0 mm 1 mps 734 mmHg 34%
    11:00 +25°C° 0 mm 1 mps 734 mmHg 33%
    12:00 +26°C° 0 mm 2 mps 733 mmHg 33%
    13:00 +26°C° 0 mm 2 mps 733 mmHg 32%
    14:00 +26°C° 0 mm 2 mps 733 mmHg 34%
    15:00 +26°C° 0 mm 2 mps 732 mmHg 37%
    16:00 +25°C° 0 mm 2 mps 732 mmHg 39%
    17:00 +23°C° 0 mm 2 mps 732 mmHg 48%
    18:00 +21°C° 0 mm 1 mps 732 mmHg 56%
    19:00 +19°C° 0 mm 1 mps 731 mmHg 65%
    20:00 +19°C° 0 mm 1 mps 731 mmHg 66%
    21:00 +18°C° 0 mm 1 mps 732 mmHg 68%
    22:00 +18°C° 0 mm 1 mps 732 mmHg 69%
    23:00 +18°C° 0 mm 1 mps 731 mmHg 69%

    29 September, Saturday

    Time Temperature Precipitation Wind Pressure Humidity
    00:00 +16°C° 0 mm 1 mps 731 mmHg 69%
    01:00 +16°C° 0 mm 1 mps 731 mmHg 68%
    02:00 +16°C° 0 mm 1 mps 731 mmHg 68%
    03:00 +16°C° 0 mm 1 mps 730 mmHg 67%
    04:00 +16°C° 0 mm 1 mps 730 mmHg 66%
    05:00 +16°C° 0 mm 1 mps 730 mmHg 64%
    06:00 +16°C° 0 mm 1 mps 730 mmHg 62%
    07:00 +18°C° 0 mm 1 mps 730 mmHg 60%
    08:00 +20°C° 0 mm 1 mps 731 mmHg 53%
    09:00 +23°C° 0 mm 1 mps 731 mmHg 46%
    10:00 +25°C° 0 mm 1 mps 731 mmHg 39%
    11:00 +26°C° 0 mm 1 mps 731 mmHg 38%
    12:00 +27°C° 0 mm 2 mps 731 mmHg 37%
    13:00 +27°C° 0 mm 2 mps 731 mmHg 36%
    14:00 +27°C° 0 mm 2 mps 731 mmHg 38%
    15:00 +26°C° 0 mm 2 mps 731 mmHg 40%
    16:00 +26°C° 0 mm 2 mps 731 mmHg 42%
    17:00 +24°C° 0 mm 2 mps 731 mmHg 50%
    18:00 +22°C° 0 mm 1 mps 731 mmHg 58%
    19:00 +20°C° 0 mm 1 mps 731 mmHg 67%
    20:00 +19°C° 0 mm 1 mps 731 mmHg 68%
    21:00 +19°C° 0 mm 1 mps 731 mmHg 69%
    22:00 +19°C° 0 mm 1 mps 732 mmHg 70%
    23:00 +18°C° 0 mm 1 mps 732 mmHg 69%

    30 September, Sunday

    Time Temperature Precipitation Wind Pressure Humidity
    00:00 +18°C° 0 mm 1 mps 731 mmHg 69%
    01:00 +18°C° 0 mm 1 mps 731 mmHg 68%
    02:00 +16°C° 0 mm 1 mps 731 mmHg 68%
    03:00 +16°C° 0 mm 1 mps 731 mmHg 68%
    04:00 +16°C° 0 mm 1 mps 731 mmHg 68%
    05:00 +16°C° 0 mm 1 mps 731 mmHg 68%
    06:00 +18°C° 0 mm 1 mps 731 mmHg 67%
    07:00 +18°C° 0 mm 1 mps 731 mmHg 66%
    08:00 +19°C° 0 mm 2 mps 732 mmHg 60%
    09:00 +21°C° 0 mm 2 mps 732 mmHg 54%
    10:00 +24°C° 0 mm 2 mps 732 mmHg 49%
    11:00 +25°C° 0.2 mm 2 mps 732 mmHg 49%
    12:00 +25°C° 0.2 mm 2 mps 732 mmHg 49%
    13:00 +25°C° 0.2 mm 3 mps 732 mmHg 50%
    14:00 +24°C° 0.4 mm 2 mps 731 mmHg 53%
    15:00 +24°C° 0.4 mm 2 mps 731 mmHg 57%
    16:00 +23°C° 0.4 mm 2 mps 731 mmHg 61%
    17:00 +22°C° 0.4 mm 1 mps 731 mmHg 67%
    18:00 +20°C° 0.4 mm 1 mps 731 mmHg 74%
    19:00 +19°C° 0.4 mm 1 mps 731 mmHg 80%
    20:00 +19°C° 0.2 mm 1 mps 731 mmHg 81%
    21:00 +18°C° 0.2 mm 1 mps 731 mmHg 82%
    22:00 +18°C° 0.2 mm 1 mps 731 mmHg 83%
    23:00 +18°C° 0.1 mm 1 mps 731 mmHg 83%
    Show more